Regional Weather Roundup
Issued by NWS

Home | Current Version | Previous Version | Text Only | Print | Product List | Glossary On
Versions: 1 2 3 4 5 6 7 8 9 10 11 12 13 14 15 16 17 18 19 20 21 22 23 24 25 26 27 28 29 30 31 32 33 34 35 36 37 38 39 40 41 42 43 44 45 46 47 48 49 50
892
ASUS46 KSTO 240815
RWRCA

NORTHERN AND CENTRAL CA REGIONAL WEATHER ROUNDUP
NATIONAL WEATHER SERVICE SACRAMENTO CA
100 AM PDT SUN JUL 24 2016

NOTE: FAIR INDICATES FEW OR NO CLOUDS BELOW 12,000 FEET WITH NO
SIGNIFICANT WEATHER AND/OR OBSTRUCTIONS TO VISIBILITY.

CAZ001-003-240900-
NORTHWEST AREA

CITY           SKY/WX    TMP DP  RH WIND       PRES   REMARKS
CRESCENT CITY  CLEAR     56  53  90 S8        30.01S
UKIAH          CLEAR     67  50  54 CALM      29.87F
$$

CAZ006-505>513-240900-
BAY AREA

CITY           SKY/WX    TMP DP  RH WIND       PRES   REMARKS
SANTA ROSA     CLEAR     58  51  78 S3        29.83S
SAN RAFAEL     N/A       63  MM  MM MISG
NAPA           CLEAR     60  55  83 CALM      29.85S
CONCORD        CLEAR     65  54  67 N5        29.82F
OAKLAND CITY   N/A       59  MM  MM MISG
OAKLAND        CLEAR     59  54  83 CALM      29.87F
SAN FRAN CITY  N/A       56  MM  79 MISG
SAN FRAN ARPT  CLEAR     58  51  78 W10       29.87F
LIVERMORE      CLEAR     65  50  58 NW5       29.84S
HAYWARD        CLEAR     61  50  67 N3        29.86F
REDWOOD CITY   N/A       62  MM  70 MISG
MOFFETT ARPT   CLEAR     62  55  77 N5        29.87F
SAN JOSE ARPT  CLEAR     62  54  74 NW7       29.86F
$$
CAZ034-037-514>518-240900-
CENTRAL COAST

CITY           SKY/WX    TMP DP  RH WIND       PRES   REMARKS
WATSONVILLE    CLEAR     55  51  86 CALM      29.87F
SALINAS        CLEAR     56  51  84 NW8       29.88S
MONTEREY       MOCLDY    55  52  89 S6        29.89F
SAN LUIS OBISP CLEAR     59  50  72 CALM      29.84S
SANTA MARIA    CLOUDY    54  51  90 CALM      29.85S
$$
CAZ015-016-240900-
NORTHERN SACRAMENTO VALLEY

CITY           SKY/WX    TMP DP  RH WIND       PRES   REMARKS
REDDING        CLEAR     84  42  22 NW6       29.81S
RED BLUFF      CLEAR     79  46  31 N7        29.81S
OROVILLE       CLEAR     80  54  40 E5        29.81R
$$
CAZ016>018-240900-
SOUTHERN SACRAMENTO VALLEY

CITY           SKY/WX    TMP DP  RH WIND       PRES   REMARKS
AUBURN         CLEAR     75  39  27 SE6       29.89F
BEALE AFB      CLEAR     78  40  26 E3        29.77S
LINCOLN        FAIR      70  41  35 E8        29.78S
MARYSVILLE     CLEAR     73  49  42 E5        29.78F
SAC INTL ARPT  CLEAR     74  52  46 SE8       29.77S
MATHER AIRPORT NOT AVBL
DOWNTOWN SAC   N/A       75  MM  MM MISG
SAC EXEC ARPT  CLEAR     70  52  52 SE3       29.79S
VACAVILLE      CLEAR     71  51  49 CALM      29.79S
TRAVIS AFB     CLEAR     66  53  62 SW17      29.77S
$$
CAZ019>021-240900-
SAN JOAQUIN VALLEY

CITY           SKY/WX    TMP DP  RH WIND       PRES   REMARKS
STOCKTON       CLEAR     71  51  49 NE7       29.79S
MODESTO        CLEAR     78  50  37 CALM      29.78F
MERCED         CLEAR     69  56  62 NW3       29.79S
FRESNO         CLEAR     80  52  37 E5        29.82S
HANFORD        CLEAR     71  59  65 CALM      29.82S
BAKERSFIELD    CLEAR     79  40  24 E3        29.83F
$$
CAZ011-012-071-240900-
NORTHERN MOUNTAINS

CITY           SKY/WX    TMP DP  RH WIND       PRES   REMARKS
YREKA          CLEAR     67  42  40 N8        30.07S
MOUNT SHASTA   CLEAR     64  42  44 CALM      30.10R
ALTURAS        CLEAR     57  34  41 N3        30.13S
$$
CAZ011-012-071-240900-
SIERRA NEVADA MTNS

CITY           SKY/WX    TMP DP  RH WIND       PRES   REMARKS
BLUE CANYON    CLEAR     73  32  22 NE3       30.15F
TRUCKEE        CLEAR     50  32  50 CALM      30.22F
TAHOE VLY ARPT CLEAR     50  32  50 CALM      30.23F
MAMMOTH LAKES    N/A     61  19  20 W13       30.29F
$$




USA.gov is the U.S. government's official web portal to all federal, state and local government web resources and services.